| time (UTC) | temp F | wind direction | speed MPH | gust MPH | rain 1hr in | rain 24hr in | rain mn in | humidity % | barometer mb |
| 20260510024305 | 78 | 125 | 9.0 | 15.0 | 0.00 | 0.00 | 0.00 | 68 | 1018.2 |
| 20260510023805 | 78 | 156 | 6.0 | 15.0 | 0.00 | 0.00 | 0.00 | 68 | 1018.3 |
| 20260510022804 | 76 | 155 | 7.0 | 12.0 | 0.00 | 0.00 | 0.00 | 70 | 1018.4 |
| 20260510022306 | 76 | 134 | 7.0 | 12.0 | 0.00 | 0.00 | 0.00 | 70 | 1018.7 |
| 20260510021805 | 76 | 114 | 7.0 | 13.0 | 0.00 | 0.00 | 0.00 | 71 | 1018.8 |
| 20260510021304 | 76 | 133 | 10.0 | 17.0 | 0.00 | 0.00 | 0.00 | 71 | 1019.0 |
| 20260510020804 | 75 | 144 | 11.0 | 18.0 | 0.00 | 0.00 | 0.00 | 72 | 1019.1 |
| 20260510020305 | 75 | 126 | 13.0 | 17.0 | 0.00 | 0.00 | 0.00 | 72 | 1019.2 |
| 20260510015804 | 76 | 129 | 13.0 | 20.0 | 0.00 | 0.00 | 0.00 | 71 | 1019.2 |
| 20260510015306 | 76 | 144 | 12.0 | 20.0 | 0.00 | 0.00 | 0.00 | 72 | 1019.3 |
| 20260510014805 | 76 | 161 | 10.0 | 18.0 | 0.00 | 0.00 | 0.00 | 72 | 1019.3 |
| 20260510014304 | 76 | 135 | 11.0 | 17.0 | 0.00 | 0.00 | 0.00 | 71 | 1019.4 |
| 20260510013304 | 76 | 138 | 12.0 | 17.0 | 0.00 | 0.00 | 0.00 | 71 | 1019.6 |
| 20260510012804 | 76 | 146 | 11.0 | 22.0 | 0.00 | 0.00 | 0.00 | 71 | 1019.6 |
| 20260510012307 | 76 | 143 | 12.0 | 20.0 | 0.00 | 0.00 | 0.00 | 71 | 1019.7 |
| 20260510011804 | 76 | 131 | 8.0 | 13.0 | 0.00 | 0.00 | 0.00 | 70 | 1019.6 |
| 20260510011304 | 76 | 117 | 7.0 | 13.0 | 0.00 | 0.00 | 0.00 | 71 | 1019.6 |
| 20260510010804 | 76 | 120 | 11.0 | 17.0 | 0.00 | 0.00 | 0.00 | 70 | 1019.6 |
| 20260510010304 | 76 | 99 | 11.0 | 14.0 | 0.00 | 0.00 | 0.00 | 70 | 1019.6 |
| 20260510005804 | 76 | 116 | 8.0 | 16.0 | 0.00 | 0.00 | 0.00 | 70 | 1019.8 |
| 20260510004804 | 75 | 104 | 9.0 | 17.0 | 0.00 | 0.00 | 0.00 | 73 | 1019.8 |
| 20260510004304 | 74 | 125 | 7.0 | 12.0 | 0.00 | 0.00 | 0.00 | 74 | 1019.9 |
| 20260510003804 | 74 | 123 | 6.0 | 18.0 | 0.00 | 0.00 | 0.00 | 74 | 1020.1 |
| 20260510003304 | 74 | 11 | 0.0 | 10.0 | 0.00 | 0.00 | 0.00 | 76 | 1020.2 |
| 20260510002805 | 74 | 7 | 1.0 | 5.0 | 0.00 | 0.00 | 0.00 | 76 | 1020.1 |
| 20260510002307 | 74 | 160 | 5.0 | 5.0 | 0.00 | 0.00 | 0.00 | 76 | 1020.0 |
| 20260510001804 | 74 | 160 | 5.0 | 12.0 | 0.00 | 0.00 | 0.00 | 76 | 1020.0 |
| 20260510001305 | 73 | 143 | 5.0 | 12.0 | 0.00 | 0.00 | 0.00 | 76 | 1020.0 |
| 20260510000806 | 73 | 143 | 9.0 | 12.0 | 0.00 | 0.00 | 0.00 | 76 | 1020.1 |
| 20260510000305 | 73 | 154 | 8.0 | 14.0 | 0.00 | 0.00 | 0.00 | 76 | 1020.1 |
| 20260509235805 | 73 | 85 | 8.0 | 8.0 | 0.00 | 0.00 | 0.00 | 76 | 1020.2 |
| 20260509235307 | 73 | 85 | 8.0 | 12.0 | 0.00 | 0.00 | 0.00 | 76 | 1020.0 |
| 20260509234304 | 73 | 125 | 14.0 | 14.0 | 0.00 | 0.00 | 0.00 | 77 | 1019.9 |
| 20260509233804 | 73 | 111 | 7.0 | 14.0 | 0.00 | 0.00 | 0.00 | 77 | 1020.0 |
| 20260509232805 | 72 | 138 | 7.0 | 17.0 | 0.00 | 0.00 | 0.00 | 77 | 1019.9 |
| 20260509232306 | 72 | 3 | 0.0 | 0.0 | 0.00 | 0.00 | 0.00 | 77 | 1019.8 |
| 20260509231804 | 72 | 3 | 0.0 | 0.0 | 0.00 | 0.00 | 0.00 | 77 | 1019.8 |
| 20260509231304 | 72 | 3 | 0.0 | 0.0 | 0.00 | 0.00 | 0.00 | 77 | 1019.8 |
| 20260509230817 | 72 | 120 | 13.0 | 13.0 | 0.00 | 0.00 | 0.00 | 77 | 1019.8 |
| 20260509230304 | 72 | 139 | 13.0 | 13.0 | 0.00 | 0.00 | 0.00 | 77 | 1019.7 |
| 20260509225804 | 72 | 139 | 10.0 | 20.0 | 0.00 | 0.00 | 0.00 | 77 | 1019.5 |
| 20260509225306 | 72 | 143 | 6.0 | 15.0 | 0.00 | 0.00 | 0.00 | 78 | 1019.5 |
| 20260509224806 | 72 | 92 | 13.0 | 13.0 | 0.00 | 0.00 | 0.00 | 78 | 1019.5 |
| 20260509224305 | 72 | 152 | 7.0 | 12.0 | 0.00 | 0.00 | 0.00 | 78 | 1019.5 |
| 20260509222805 | 71 | 152 | 12.0 | 12.0 | 0.00 | 0.00 | 0.00 | 78 | 1019.3 |
| 20260509222307 | 71 | 155 | 8.0 | 14.0 | 0.00 | 0.00 | 0.00 | 78 | 1019.3 |
| 20260509221804 | 71 | 126 | 5.0 | 10.0 | 0.00 | 0.00 | 0.00 | 78 | 1019.3 |
| 20260509221304 | 70 | 132 | 5.0 | 20.0 | 0.00 | 0.00 | 0.00 | 80 | 1019.1 |
| 20260509220304 | 70 | 3 | 0.0 | 0.0 | 0.00 | 0.00 | 0.00 | 80 | 1019.1 |
| 20260509215806 | 70 | 3 | 0.0 | 0.0 | 0.00 | 0.00 | 0.00 | 80 | 1019.3 |
| 20260509215306 | 70 | 3 | 0.0 | 0.0 | 0.00 | 0.00 | 0.00 | 80 | 1019.2 |
| 20260509214804 | 70 | 3 | 0.0 | 0.0 | 0.00 | 0.00 | 0.00 | 80 | 1019.0 |
| 20260509214305 | 70 | 3 | 0.0 | 9.0 | 0.00 | 0.00 | 0.00 | 80 | 1018.6 |
| 20260509213805 | 70 | 118 | 9.0 | 9.0 | 0.00 | 0.00 | 0.00 | 80 | 1018.5 |
| 20260509213306 | 70 | 118 | 9.0 | 10.0 | 0.00 | 0.00 | 0.00 | 80 | 1018.5 |
| 20260509212805 | 70 | 1 | 0.0 | 0.0 | 0.00 | 0.00 | 0.00 | 80 | 1018.4 |
| 20260509211804 | 70 | 2 | 0.0 | 0.0 | 0.00 | 0.00 | 0.00 | 80 | 1018.2 |
| 20260509211306 | 70 | 1 | 0.0 | 0.0 | 0.00 | 0.00 | 0.00 | 80 | 1018.2 |
| 20260509210804 | 70 | 7 | 1.0 | 5.0 | 0.00 | 0.00 | 0.00 | 80 | 1018.0 |
| 20260509210305 | 70 | 164 | 5.0 | 5.0 | 0.00 | 0.00 | 0.00 | 80 | 1018.0 |
| 20260509205307 | 70 | 151 | 5.0 | 9.0 | 0.00 | 0.00 | 0.00 | 80 | 1017.8 |
| 20260509204804 | 70 | 2 | 0.0 | 0.0 | 0.00 | 0.00 | 0.00 | 81 | 1017.8 |
| 20260509203305 | 70 | 2 | 0.0 | 0.0 | 0.00 | 0.00 | 0.00 | 81 | 1017.7 |
| 20260509202307 | 70 | 151 | 5.0 | 5.0 | 0.00 | 0.00 | 0.00 | 81 | 1017.6 |
| 20260509201804 | 70 | 150 | 4.0 | 5.0 | 0.00 | 0.00 | 0.00 | 81 | 1017.4 |
| 20260509200805 | 70 | 2 | 0.0 | 0.0 | 0.00 | 0.00 | 0.00 | 81 | 1017.2 |
| 20260509200304 | 70 | 1 | 0.0 | 0.0 | 0.00 | 0.00 | 0.00 | 81 | 1017.0 |
| 20260509195805 | 70 | 93 | 7.0 | 7.0 | 0.00 | 0.00 | 0.00 | 81 | 1017.0 |
| 20260509195307 | 70 | 116 | 7.0 | 7.0 | 0.00 | 0.00 | 0.00 | 81 | 1016.8 |
| 20260509194804 | 70 | 125 | 6.0 | 10.0 | 0.00 | 0.00 | 0.00 | 81 | 1016.8 |
| 20260509194305 | 70 | 139 | 6.0 | 12.0 | 0.00 | 0.00 | 0.00 | 81 | 1016.7 |
| 20260509193804 | 70 | 142 | 4.0 | 12.0 | 0.00 | 0.00 | 0.00 | 81 | 1016.7 |
| 20260509193304 | 70 | 127 | 6.0 | 12.0 | 0.00 | 0.00 | 0.00 | 80 | 1016.7 |
| 20260509192306 | 70 | 142 | 6.0 | 12.0 | 0.00 | 0.00 | 0.00 | 80 | 1016.6 |
| 20260509191305 | 70 | 140 | 3.0 | 9.0 | 0.00 | 0.00 | 0.00 | 80 | 1016.5 |
| 20260509190804 | 70 | 115 | 5.0 | 9.0 | 0.00 | 0.00 | 0.00 | 80 | 1016.6 |
| 20260509190305 | 70 | 122 | 5.0 | 9.0 | 0.00 | 0.00 | 0.00 | 80 | 1016.6 |
| 20260509185804 | 70 | 137 | 6.0 | 12.0 | 0.00 | 0.00 | 0.00 | 80 | 1016.5 |
| 20260509184805 | 70 | 145 | 5.0 | 9.0 | 0.00 | 0.00 | 0.00 | 80 | 1016.4 |
| 20260509183804 | 70 | 120 | 4.0 | 8.0 | 0.00 | 0.00 | 0.00 | 80 | 1016.4 |
| 20260509183304 | 70 | 137 | 4.0 | 12.0 | 0.00 | 0.00 | 0.00 | 80 | 1016.5 |
| 20260509182804 | 70 | 124 | 6.0 | 12.0 | 0.00 | 0.00 | 0.00 | 79 | 1016.4 |
| 20260509182306 | 70 | 129 | 5.0 | 12.0 | 0.00 | 0.00 | 0.00 | 79 | 1016.3 |
| 20260509181805 | 70 | 125 | 5.0 | 9.0 | 0.00 | 0.00 | 0.00 | 79 | 1016.3 |
| 20260509181304 | 70 | 123 | 4.0 | 10.0 | 0.00 | 0.00 | 0.00 | 79 | 1016.2 |
| 20260509180804 | 70 | 126 | 5.0 | 12.0 | 0.00 | 0.00 | 0.00 | 79 | 1016.3 |
| 20260509175806 | 70 | 144 | 3.0 | 12.0 | 0.00 | 0.00 | 0.00 | 78 | 1016.4 |
| 20260509175306 | 70 | 3 | 0.0 | 0.0 | 0.00 | 0.00 | 0.00 | 81 | 1016.4 |
| 20260509174805 | 70 | 3 | 0.0 | 0.0 | 0.00 | 0.00 | 0.00 | 81 | 1016.5 |
| 20260509174304 | 70 | 3 | 0.0 | 0.0 | 0.00 | 0.00 | 0.00 | 81 | 1016.5 |
| 20260509173304 | 70 | 3 | 0.0 | 0.0 | 0.00 | 0.00 | 0.00 | 81 | 1016.6 |
| 20260509172306 | 70 | 3 | 0.0 | 0.0 | 0.00 | 0.00 | 0.00 | 81 | 1016.5 |
| 20260509171805 | 70 | 2 | 0.0 | 0.0 | 0.00 | 0.00 | 0.00 | 81 | 1016.5 |
| 20260509171305 | 70 | 3 | 0.0 | 0.0 | 0.00 | 0.00 | 0.00 | 81 | 1016.6 |
| 20260509170304 | 70 | 3 | 0.0 | 0.0 | 0.00 | 0.00 | 0.00 | 81 | 1016.6 |
| 20260509165804 | 70 | 3 | 0.0 | 0.0 | 0.00 | 0.00 | 0.00 | 81 | 1016.5 |
| 20260509165307 | 70 | 3 | 0.0 | 0.0 | 0.00 | 0.00 | 0.00 | 81 | 1016.6 |
| 20260509164804 | 70 | 3 | 0.0 | 0.0 | 0.00 | 0.00 | 0.00 | 81 | 1016.6 |
| 20260509164304 | 70 | 3 | 0.0 | 0.0 | 0.00 | 0.00 | 0.00 | 81 | 1016.5 |
| 20260509162804 | 70 | 146 | 12.0 | 12.0 | 0.00 | 0.00 | 0.00 | 81 | 1016.7 |
| 20260509162307 | 70 | 146 | 12.0 | 14.0 | 0.00 | 0.00 | 0.00 | 81 | 1016.7 |
| 20260509161805 | 70 | 123 | 9.0 | 14.0 | 0.00 | 0.00 | 0.00 | 81 | 1016.7 |
| 20260509161305 | 69 | 125 | 5.0 | 13.0 | 0.00 | 0.00 | 0.00 | 81 | 1016.8 |
| 20260509160804 | 68 | 7 | 0.0 | 3.0 | 0.00 | 0.00 | 0.00 | 82 | 1016.8 |
| 20260509160304 | 68 | 3 | 0.0 | 0.0 | 0.00 | 0.00 | 0.00 | 82 | 1017.0 |
| 20260509155805 | 68 | 3 | 0.0 | 0.0 | 0.00 | 0.00 | 0.00 | 82 | 1017.0 |
| 20260509152306 | 68 | 3 | 0.0 | 0.0 | 0.00 | 0.00 | 0.00 | 82 | 1017.4 |
| 20260509151804 | 68 | 3 | 0.0 | 0.0 | 0.00 | 0.00 | 0.00 | 82 | 1017.4 |
| 20260509151304 | 68 | 3 | 0.0 | 0.0 | 0.00 | 0.00 | 0.00 | 82 | 1017.5 |
| 20260509150805 | 68 | 3 | 0.0 | 0.0 | 0.00 | 0.00 | 0.00 | 82 | 1017.5 |
| 20260509145804 | 68 | 3 | 0.0 | 0.0 | 0.00 | 0.00 | 0.00 | 82 | 1017.6 |
| 20260509145306 | 68 | 3 | 0.0 | 0.0 | 0.00 | 0.00 | 0.00 | 82 | 1017.5 |
| 20260509144804 | 68 | 3 | 0.0 | 0.0 | 0.00 | 0.00 | 0.00 | 82 | 1017.6 |
| 20260509144304 | 68 | 2 | 0.0 | 0.0 | 0.00 | 0.00 | 0.00 | 82 | 1017.7 |
| 20260509143805 | 68 | 3 | 0.0 | 0.0 | 0.00 | 0.00 | 0.00 | 82 | 1017.7 |
| 20260509143305 | 68 | 3 | 0.0 | 0.0 | 0.00 | 0.00 | 0.00 | 82 | 1017.8 |
| 20260509142805 | 68 | 3 | 0.0 | 0.0 | 0.00 | 0.00 | 0.00 | 82 | 1017.8 |
| 20260509142307 | 68 | 3 | 0.0 | 0.0 | 0.00 | 0.00 | 0.00 | 82 | 1017.8 |
| 20260509141805 | 68 | 3 | 0.0 | 0.0 | 0.00 | 0.00 | 0.00 | 82 | 1017.9 |
| 20260509141304 | 68 | 3 | 0.0 | 0.0 | 0.00 | 0.00 | 0.00 | 82 | 1017.9 |
| 20260509140805 | 68 | 3 | 0.0 | 0.0 | 0.00 | 0.00 | 0.00 | 82 | 1017.9 |
| 20260509140305 | 68 | 3 | 0.0 | 0.0 | 0.00 | 0.00 | 0.00 | 82 | 1018.0 |
| 20260509135804 | 68 | 3 | 0.0 | 0.0 | 0.00 | 0.00 | 0.00 | 82 | 1018.0 |
| 20260509135306 | 68 | 3 | 0.0 | 0.0 | 0.00 | 0.00 | 0.00 | 82 | 1017.9 |
| 20260509134304 | 68 | 3 | 0.0 | 0.0 | 0.00 | 0.00 | 0.00 | 82 | 1017.8 |
| 20260509133804 | 68 | 6 | 1.0 | 5.0 | 0.00 | 0.00 | 0.00 | 82 | 1017.9 |
| 20260509132806 | 68 | 128 | 5.0 | 9.0 | 0.00 | 0.00 | 0.00 | 82 | 1017.9 |
| 20260509132306 | 68 | 107 | 3.0 | 8.0 | 0.00 | 0.00 | 0.00 | 82 | 1017.9 |
| 20260509131305 | 68 | 108 | 3.0 | 3.0 | 0.00 | 0.00 | 0.00 | 82 | 1017.9 |
| 20260509130805 | 68 | 108 | 3.0 | 7.0 | 0.00 | 0.00 | 0.00 | 82 | 1018.0 |
| 20260509130304 | 68 | 132 | 2.0 | 3.0 | 0.00 | 0.00 | 0.00 | 82 | 1017.9 |
| 20260509124805 | 68 | 151 | 5.0 | 10.0 | 0.00 | 0.00 | 0.00 | 82 | 1018.0 |
| 20260509124304 | 68 | 139 | 5.0 | 12.0 | 0.00 | 0.00 | 0.00 | 82 | 1018.0 |
| 20260509123805 | 68 | 137 | 6.0 | 12.0 | 0.00 | 0.00 | 0.00 | 82 | 1018.2 |
| 20260509123305 | 68 | 149 | 6.0 | 10.0 | 0.00 | 0.00 | 0.00 | 82 | 1018.3 |
| 20260509122806 | 67 | 133 | 5.0 | 14.0 | 0.00 | 0.00 | 0.00 | 82 | 1018.3 |
| 20260509121805 | 67 | 136 | 1.0 | 9.0 | 0.00 | 0.00 | 0.00 | 82 | 1018.5 |
| 20260509121304 | 67 | 3 | 0.0 | 0.0 | 0.00 | 0.00 | 0.00 | 82 | 1018.5 |
| 20260509120304 | 67 | 3 | 0.0 | 0.0 | 0.00 | 0.00 | 0.00 | 82 | 1018.6 |
| 20260509115805 | 67 | 1 | 0.0 | 0.0 | 0.00 | 0.00 | 0.00 | 82 | 1018.5 |
| 20260509115307 | 67 | 3 | 0.0 | 0.0 | 0.00 | 0.00 | 0.00 | 82 | 1018.5 |
| 20260509114804 | 67 | 1 | 0.0 | 8.0 | 0.00 | 0.00 | 0.00 | 82 | 1018.7 |
| 20260509112805 | 67 | 167 | 5.0 | 12.0 | 0.00 | 0.00 | 0.00 | 81 | 1018.6 |
| 20260509112307 | 67 | 165 | 6.0 | 12.0 | 0.00 | 0.00 | 0.00 | 81 | 1018.5 |
| 20260509111805 | 67 | 166 | 7.0 | 14.0 | 0.00 | 0.00 | 0.00 | 81 | 1018.6 |
| 20260509111304 | 67 | 151 | 6.0 | 13.0 | 0.00 | 0.00 | 0.00 | 81 | 1018.6 |
| 20260509110804 | 67 | 166 | 6.0 | 12.0 | 0.00 | 0.00 | 0.00 | 81 | 1018.6 |
| 20260509110304 | 67 | 158 | 7.0 | 15.0 | 0.00 | 0.00 | 0.00 | 81 | 1018.9 |
| 20260509105306 | 67 | 160 | 9.0 | 15.0 | 0.00 | 0.00 | 0.00 | 81 | 1018.9 |
| 20260509104805 | 67 | 161 | 5.0 | 12.0 | 0.00 | 0.00 | 0.00 | 81 | 1018.8 |
| 20260509104305 | 67 | 184 | 9.0 | 12.0 | 0.00 | 0.00 | 0.00 | 81 | 1018.9 |
| 20260509103804 | 67 | 172 | 9.0 | 12.0 | 0.00 | 0.00 | 0.00 | 80 | 1018.9 |
| 20260509103304 | 67 | 160 | 9.0 | 13.0 | 0.00 | 0.00 | 0.00 | 80 | 1018.9 |
| 20260509102805 | 67 | 169 | 8.0 | 16.0 | 0.00 | 0.00 | 0.00 | 80 | 1018.7 |
| 20260509102306 | 67 | 151 | 9.0 | 14.0 | 0.00 | 0.00 | 0.00 | 80 | 1018.7 |
| 20260509101804 | 67 | 157 | 7.0 | 15.0 | 0.00 | 0.00 | 0.00 | 80 | 1018.7 |
| 20260509101305 | 67 | 150 | 9.0 | 13.0 | 0.00 | 0.00 | 0.00 | 80 | 1018.5 |
| 20260509100804 | 67 | 162 | 11.0 | 15.0 | 0.00 | 0.00 | 0.00 | 80 | 1018.5 |
| 20260509100305 | 67 | 148 | 6.0 | 10.0 | 0.00 | 0.00 | 0.00 | 80 | 1018.5 |
| 20260509095805 | 67 | 150 | 6.0 | 10.0 | 0.00 | 0.00 | 0.00 | 79 | 1018.5 |
| 20260509095306 | 67 | 149 | 5.0 | 10.0 | 0.00 | 0.00 | 0.00 | 79 | 1018.5 |
| 20260509094805 | 67 | 158 | 7.0 | 12.0 | 0.00 | 0.00 | 0.00 | 79 | 1018.4 |
| 20260509094304 | 67 | 147 | 7.0 | 12.0 | 0.00 | 0.00 | 0.00 | 79 | 1018.4 |
| 20260509093804 | 68 | 146 | 7.0 | 12.0 | 0.00 | 0.00 | 0.00 | 79 | 1018.2 |
| 20260509093304 | 68 | 119 | 8.0 | 13.0 | 0.00 | 0.00 | 0.00 | 79 | 1018.1 |
| 20260509092804 | 68 | 142 | 5.0 | 12.0 | 0.00 | 0.00 | 0.00 | 78 | 1018.1 |
| 20260509092306 | 68 | 154 | 6.0 | 12.0 | 0.00 | 0.00 | 0.00 | 78 | 1018.0 |
| 20260509091805 | 68 | 132 | 7.0 | 13.0 | 0.00 | 0.00 | 0.00 | 78 | 1018.0 |
| 20260509091305 | 68 | 160 | 7.0 | 21.0 | 0.00 | 0.00 | 0.00 | 78 | 1017.9 |
| 20260509090804 | 68 | 160 | 6.0 | 12.0 | 0.00 | 0.00 | 0.00 | 78 | 1017.9 |
| 20260509090304 | 68 | 138 | 6.0 | 14.0 | 0.00 | 0.00 | 0.00 | 78 | 1017.9 |
| 20260509085804 | 68 | 151 | 10.0 | 16.0 | 0.00 | 0.00 | 0.00 | 78 | 1017.8 |
| 20260509085306 | 68 | 150 | 6.0 | 14.0 | 0.00 | 0.00 | 0.00 | 78 | 1017.7 |
| 20260509084804 | 68 | 137 | 7.0 | 12.0 | 0.00 | 0.00 | 0.00 | 78 | 1017.7 |
| 20260509083305 | 69 | 126 | 9.0 | 16.0 | 0.00 | 0.00 | 0.00 | 77 | 1017.7 |
| 20260509082307 | 69 | 133 | 7.0 | 12.0 | 0.00 | 0.00 | 0.00 | 77 | 1017.7 |
| 20260509081805 | 69 | 152 | 6.0 | 10.0 | 0.00 | 0.00 | 0.00 | 76 | 1017.7 |
| 20260509081304 | 69 | 107 | 6.0 | 9.0 | 0.00 | 0.00 | 0.00 | 76 | 1017.7 |
| 20260509080804 | 69 | 127 | 7.0 | 12.0 | 0.00 | 0.00 | 0.00 | 76 | 1017.6 |
| 20260509080305 | 70 | 153 | 6.0 | 14.0 | 0.00 | 0.00 | 0.00 | 76 | 1017.7 |
| 20260509075805 | 70 | 146 | 6.0 | 12.0 | 0.00 | 0.00 | 0.00 | 75 | 1017.6 |
| 20260509074304 | 70 | 131 | 9.0 | 15.0 | 0.00 | 0.00 | 0.00 | 74 | 1017.4 |
| 20260509073805 | 71 | 142 | 10.0 | 14.0 | 0.00 | 0.00 | 0.00 | 74 | 1017.4 |
| 20260509073305 | 71 | 143 | 7.0 | 12.0 | 0.00 | 0.00 | 0.00 | 74 | 1017.3 |
| 20260509072804 | 71 | 161 | 12.0 | 12.0 | 0.00 | 0.00 | 0.00 | 73 | 1017.3 |
| 20260509072306 | 71 | 161 | 9.0 | 15.0 | 0.00 | 0.00 | 0.00 | 73 | 1017.2 |
| 20260509071804 | 71 | 113 | 8.0 | 15.0 | 0.00 | 0.00 | 0.00 | 73 | 1017.2 |
| 20260509071304 | 72 | 159 | 8.0 | 15.0 | 0.00 | 0.00 | 0.00 | 73 | 1017.1 |
| 20260509070805 | 72 | 152 | 6.0 | 12.0 | 0.00 | 0.00 | 0.00 | 73 | 1017.1 |
| 20260509070304 | 72 | 148 | 9.0 | 13.0 | 0.00 | 0.00 | 0.00 | 73 | 1017.0 |
| 20260509065306 | 73 | 149 | 9.0 | 17.0 | 0.00 | 0.00 | 0.00 | 72 | 1016.8 |
| 20260509064806 | 74 | 131 | 3.0 | 3.0 | 0.00 | 0.00 | 0.00 | 71 | 1016.7 |
| 20260509064304 | 74 | 131 | 4.0 | 10.0 | 0.00 | 0.00 | 0.00 | 71 | 1016.6 |
| 20260509063805 | 74 | 166 | 10.0 | 14.0 | 0.00 | 0.00 | 0.00 | 71 | 1016.6 |
| 20260509063304 | 78 | 3 | 0.0 | 0.0 | 0.00 | 0.00 | 0.00 | 66 | 1016.5 |
| 20260509062804 | 78 | 3 | 0.0 | 0.0 | 0.00 | 0.00 | 0.00 | 66 | 1016.3 |
| 20260509062306 | 78 | 3 | 0.0 | 0.0 | 0.00 | 0.00 | 0.00 | 66 | 1016.2 |
| 20260509061804 | 78 | 3 | 0.0 | 0.0 | 0.00 | 0.00 | 0.00 | 66 | 1016.1 |
| 20260509061304 | 78 | 3 | 0.0 | 0.0 | 0.00 | 0.00 | 0.00 | 66 | 1016.1 |
| 20260509060805 | 78 | 3 | 0.0 | 0.0 | 0.00 | 0.00 | 0.00 | 66 | 1016.0 |
| 20260509060304 | 78 | 3 | 0.0 | 0.0 | 0.00 | 0.00 | 0.00 | 66 | 1016.0 |
| 20260509055804 | 78 | 3 | 0.0 | 0.0 | 0.00 | 0.00 | 0.00 | 66 | 1016.0 |
| 20260509055307 | 78 | 3 | 0.0 | 0.0 | 0.00 | 0.00 | 0.00 | 66 | 1015.9 |
| 20260509054304 | 78 | 3 | 0.0 | 0.0 | 0.00 | 0.00 | 0.00 | 66 | 1015.8 |
| 20260509053805 | 78 | 3 | 0.0 | 0.0 | 0.00 | 0.00 | 0.00 | 66 | 1015.8 |
| 20260509053304 | 78 | 3 | 0.0 | 8.0 | 0.00 | 0.00 | 0.00 | 66 | 1015.7 |
| 20260509052805 | 78 | 160 | 8.0 | 8.0 | 0.00 | 0.00 | 0.00 | 66 | 1015.4 |
| 20260509052307 | 78 | 160 | 8.0 | 12.0 | 0.00 | 0.00 | 0.00 | 66 | 1015.5 |
| 20260509051305 | 79 | 143 | 7.0 | 15.0 | 0.00 | 0.00 | 0.00 | 66 | 1015.6 |
| 20260509050805 | 78 | 131 | 7.0 | 15.0 | 0.00 | 0.00 | 0.00 | 66 | 1015.5 |
| 20260509050304 | 78 | 133 | 9.0 | 13.0 | 0.00 | 0.00 | 0.00 | 67 | 1015.5 |
| 20260509045805 | 78 | 158 | 9.0 | 17.0 | 0.00 | 0.00 | 0.00 | 67 | 1015.6 |
| 20260509045306 | 78 | 107 | 7.0 | 14.0 | 0.00 | 0.00 | 0.00 | 67 | 1015.5 |
| 20260509044304 | 77 | 155 | 7.0 | 12.0 | 0.00 | 0.00 | 0.00 | 68 | 1015.6 |
| 20260509043804 | 77 | 105 | 10.0 | 15.0 | 0.00 | 0.00 | 0.00 | 67 | 1015.6 |
| 20260509043304 | 78 | 133 | 6.0 | 12.0 | 0.00 | 0.00 | 0.00 | 67 | 1015.6 |
| 20260509042805 | 78 | 167 | 12.0 | 17.0 | 0.00 | 0.00 | 0.00 | 67 | 1015.6 |
| 20260509042306 | 77 | 148 | 9.0 | 14.0 | 0.00 | 0.00 | 0.00 | 68 | 1015.6 |
| 20260509041304 | 77 | 158 | 10.0 | 15.0 | 0.00 | 0.00 | 0.00 | 69 | 1015.8 |
| 20260509040305 | 77 | 148 | 9.0 | 15.0 | 0.00 | 0.00 | 0.00 | 69 | 1016.0 |
| 20260509035806 | 77 | 149 | 7.0 | 16.0 | 0.00 | 0.00 | 0.00 | 69 | 1016.1 |
| 20260509035306 | 77 | 137 | 10.0 | 17.0 | 0.00 | 0.00 | 0.00 | 69 | 1016.1 |
| 20260509034804 | 76 | 156 | 8.0 | 17.0 | 0.00 | 0.00 | 0.00 | 70 | 1016.2 |
| 20260509034304 | 76 | 154 | 12.0 | 20.0 | 0.00 | 0.00 | 0.00 | 70 | 1016.2 |
| 20260509033804 | 76 | 128 | 10.0 | 16.0 | 0.00 | 0.00 | 0.00 | 70 | 1016.2 |
| 20260509033304 | 76 | 164 | 12.0 | 16.0 | 0.00 | 0.00 | 0.00 | 70 | 1016.3 |
| 20260509032805 | 76 | 146 | 10.0 | 14.0 | 0.00 | 0.00 | 0.00 | 70 | 1016.4 |
| 20260509032306 | 76 | 132 | 9.0 | 15.0 | 0.00 | 0.00 | 0.00 | 70 | 1016.4 |
| 20260509031804 | 76 | 145 | 8.0 | 14.0 | 0.00 | 0.00 | 0.00 | 70 | 1016.5 |
| 20260509030804 | 77 | 167 | 9.0 | 12.0 | 0.00 | 0.00 | 0.00 | 69 | 1016.4 |
| 20260509025306 | 77 | 142 | 8.0 | 14.0 | 0.00 | 0.00 | 0.00 | 68 | 1016.5 |
| 20260509024804 | 77 | 144 | 9.0 | 15.0 | 0.00 | 0.00 | 0.00 | 68 | 1016.6 |